Location: Grust
(42.8833°N, 0.0333°W)
Time: 19:07:43
(UTC+00:00)

Okean-O - Pass Details

Date: 25 October 2020
Orbit: 638 x 641 km, 98.2° (Epoch: 22 November)

Event Time Altitude Azimuth Distance (km) Brightness Sun altitude
Rises 18:01:10 0° 150° (SSE) 2,934 5.8 -11.5°
Reaches altitude 10° 18:03:25 10° 144° (SE) 2,029 4.9 -11.9°
Maximum altitude 18:07:38 46° 71° (ENE) 864 2.9 -12.7°
Drops below altitude 10° 18:11:53 10° 359° (N) 2,042 5.2 -13.5°
Sets 18:14:10 0° 353° (N) 2,956 6.1 -13.9°
